Location: ?????
(42.2640°N, 43.4211°E)
Time: 14:35:35
(UTC+00:00)

NOSS 3-1 (C) - Pass Details

Date: 07 August 2020
Orbit: 744 x 1464 km, 63.4° (Epoch: 17 September)

Event Time Altitude Azimuth Distance (km) Brightness Sun altitude
Exits shadow 00:30:07 25° 236° (SW) 1,603 4.0 -15.8°
Maximum altitude 00:33:19 62° 310° (NW) 964 3.4 -15.3°
Drops below altitude 10° 00:39:32 10° 31° (NNE) 2,732 7.0 -14.4°
Sets 00:42:23 0° 35° (NE) 3,799 8.1 -14.0°
